Flag for Germany Weather past 2 weeks in Darmstadt, Hesse, Germany

Now
68 °F

Sunny.


Feels Like: 68 °F
Forecast: 42 / 60 °F
Wind: 9 mph from Northwest

Location: Frankfurt-M-Flughafen Airport

Current Time: Apr 21, 2015 at 9:21:45 PM

Latest Report: Apr 21, 2015 at 8:50 PM


Visibility: 10 mi

Pressure: 30.33 "Hg

Humidity: 30%

Dew point: 36 °F

Location of DarmstadtLocation

Historic Weather in Darmstadt — Graph

°F

Darmstadt temperature yesterday

Maximum temperature yesterday: 68 °F (at 4:50 PM)
Minimum temperature yesterday: 43 °F (at 4:50 AM)
Average temperature yesterday: 57 °F

Past Weeks' High & Low Weather Summary

 TemperatureHumidityPressure
High77 °F (Apr 15, 3:50 PM)93% (Apr 7, 5:50 AM)30.63 "Hg (Apr 7, 5:50 AM)
Low28 °F (Apr 7, 5:50 AM)20% (Apr 19, 5:20 PM)29.83 "Hg (Apr 16, 7:20 PM)
Average54 °F55%30.25 "Hg
* Reported Apr 6 8:20 PM — Apr 21 8:20 PM, Darmstadt, Weather by CustomWeather, © 2015

Note: Actual official high and low records may vary slightly from our data, if they occured in-between our weather recording intervals... More about our weather records

Advertising

Darmstadt weather history for previous 24 hours

 ConditionsComfort  
Time TempWeatherWind HumidityBarometerVisibility
8:20 PM
Tue, Apr 21
68 °FSunny.10 mph24%30.30 "Hg10 mi
7:50 PM70 °FSunny.10 mph25%30.30 "Hg10 mi
7:20 PM72 °FSunny.13 mph25%30.30 "Hg10 mi
6:50 PM73 °FSunny.13 mph25%30.30 "Hg10 mi
6:20 PM73 °FPassing clouds.10 mph25%30.30 "HgN/A
5:50 PM73 °FSunny.7 mph25%30.30 "Hg10 mi
5:20 PM75 °FPassing clouds.6 mph24%30.30 "HgN/A
4:50 PM75 °FSunny.3 mph24%30.33 "Hg10 mi
4:20 PM73 °FPassing clouds.3 mph23%30.33 "HgN/A
3:50 PM73 °FSunny.2 mph23%30.33 "Hg10 mi
3:20 PM72 °FSunny.2 mph25%30.36 "Hg10 mi
2:50 PM72 °FSunny.3 mph25%30.36 "Hg10 mi
2:20 PM70 °FSunny.6 mph29%30.36 "Hg10 mi
1:50 PM70 °FSunny.5 mph29%30.39 "Hg10 mi
1:20 PM68 °FSunny.3 mph33%30.39 "Hg10 mi
12:50 PM66 °FSunny.5 mph32%30.39 "Hg10 mi
12:20 PM66 °FSunny.5 mph32%30.42 "Hg10 mi
11:50 AM64 °FPassing clouds.6 mph30%30.42 "HgN/A
11:20 AM63 °FPassing clouds.5 mph37%30.42 "HgN/A
10:50 AM61 °FSunny.2 mph42%30.42 "Hg10 mi
10:20 AM59 °FPassing clouds.5 mph45%30.42 "HgN/A
9:50 AM57 °FSunny.8 mph48%30.42 "Hg10 mi
9:20 AM57 °FPassing clouds.7 mph51%30.42 "HgN/A
8:50 AM55 °FPassing clouds.5 mph55%30.39 "HgN/A
8:20 AM54 °FPassing clouds.5 mph58%30.39 "HgN/A
7:50 AM50 °FSunny.1 mph71%30.39 "Hg10 mi
7:20 AM46 °FClear.1 mph82%30.39 "Hg10 mi
6:50 AM41 °FClear.1 mph93%30.36 "Hg10 mi
6:20 AM39 °FClear.No wind93%30.36 "Hg10 mi
5:50 AM41 °FClear.No wind81%30.36 "Hg10 mi
5:20 AM39 °FClear.1 mph87%30.36 "Hg10 mi
4:50 AM39 °FClear.No wind87%30.36 "Hg10 mi
4:20 AM39 °FClear.No wind87%30.36 "Hg10 mi
3:50 AM41 °FClear.No wind81%30.36 "Hg10 mi
3:20 AM41 °FClear.2 mph81%30.36 "Hg10 mi
2:50 AM43 °FClear.3 mph81%30.33 "Hg10 mi
2:20 AM45 °FClear.5 mph71%30.33 "Hg10 mi
1:50 AM45 °FClear.2 mph71%30.33 "Hg10 mi
1:20 AM46 °FClear.2 mph66%30.33 "Hg10 mi
12:50 AM46 °FClear.5 mph66%30.33 "Hg10 mi
12:20 AM48 °FPassing clouds.3 mph62%30.33 "HgN/A
11:50 PM
Mon, Apr 20
50 °FClear.6 mph58%30.33 "Hg10 mi
11:20 PM54 °FClear.7 mph51%30.33 "Hg10 mi
10:50 PM55 °FClear.13 mph44%30.33 "Hg10 mi
10:20 PM61 °FClear.8 mph36%30.30 "Hg10 mi
9:50 PM61 °FClear.10 mph34%30.30 "Hg10 mi
9:20 PM63 °FSunny.10 mph32%30.30 "Hg10 mi
Weather by CustomWeather, © 2015

See weather overviewHow to use our weather pages